Location: *
(48.4333°N, 5.0333°W)
Time: 02:52:01
(UTC+00:00)

STARLINK-1244 - Pass Details

Date: 09 April 2020
Orbit: 549 x 550 km, 53.0° (Epoch: 02 June)

Event Time Altitude Azimuth Distance (km) Brightness Sun altitude
Rises 21:27:30 0° 295° (WNW) 2,728 8.5 -21.9°
Reaches altitude 10° 21:29:47 10° 290° (WNW) 1,831 7.2 -22.1°
Enters shadow 21:33:41 47° 221° (SW) 731 4.1 -22.6°
